Find Starlink 1788

NORAD ID: 46689 Int'l Des: 2020-073 Owner: SPXS Country: US Constellation: starlink operational
LEOCIRCULAR

Live Position

Loading 3D Globe...

About Starlink 1788

Description loading...

Upcoming Passes

Passes for default location (London). Set your location on the main map for personalized predictions.

Altitude History

Loading altitude history...

Two-Line Element Set

1 46689U 20073V 26121.27395441 .00168744 00000-0 11651-2 0 9998
2 46689 53.0394 319.1757 0003074 203.9819 156.1057 15.73544716306959
Epoch: May 1, 2026 • Age: 13 hours

Current Status

Altitude 355.2 km
Velocity 7.70 km/s
Sub-Earth Point -29.45°S, 6.35°E
Launch Date Oct 18, 2020
Age 5.5 years
Type internet

Technical Details

Classification Payload
Mass 260.00 kg
Dry Mass 248.00 kg
Total Mass 260.00 kg
Length 0.20 m
Diameter 2.80 m
Span 9.00 m
Shape Box + pan
Manufacturer SPXS
Bus Type Starlink
Phase Status In Orbit
Owner/State SPXS/US

Most Searched